Time,TemperatureF,DewpointF,PressureIn,WindDirection,WindDirectionDegrees,WindSpeedMPH,WindSpeedGustMPH,Humidity,HourlyPrecipIn,Conditions,Clouds,dailyrainin,SoftwareType,DateUTC
2013-09-12 00:05:00,63.2,60.5,30.05,NNW,334,0.0,0.0,91,0.00,,,0.00,Wunderground v.1.15,2013-09-12 05:05:00,
2013-09-12 00:15:00,63.0,60.3,30.05,NNW,334,0.0,0.0,91,0.00,,,0.00,Wunderground v.1.15,2013-09-12 05:15:00,
2013-09-12 00:20:00,62.9,60.2,30.05,NNW,334,0.0,0.0,91,0.00,,,0.00,Wunderground v.1.15,2013-09-12 05:20:00,
2013-09-12 00:25:00,62.8,60.1,30.05,NNW,334,0.0,0.0,91,0.00,,,0.00,Wunderground v.1.15,2013-09-12 05:25:00,
2013-09-12 00:30:00,62.6,59.9,30.05,NNW,335,0.0,0.0,91,0.00,,,0.00,Wunderground v.1.15,2013-09-12 05:30:00,
2013-09-12 00:35:00,62.4,59.7,30.05,NNW,334,0.0,0.0,91,0.00,,,0.00,Wunderground v.1.15,2013-09-12 05:35:00,
2013-09-12 00:40:00,62.3,59.6,30.05,NNW,335,0.0,0.0,91,0.00,,,0.00,Wunderground v.1.15,2013-09-12 05:40:00,
2013-09-12 00:45:00,62.3,59.6,30.05,NNW,335,0.0,0.0,91,0.00,,,0.00,Wunderground v.1.15,2013-09-12 05:45:00,
2013-09-12 00:50:00,62.2,59.8,30.05,NNW,334,0.0,0.0,92,0.00,,,0.00,Wunderground v.1.15,2013-09-12 05:50:00,
2013-09-12 00:55:00,62.1,59.4,30.05,NNW,335,0.0,0.0,91,0.00,,,0.00,Wunderground v.1.15,2013-09-12 05:55:00,
2013-09-12 01:05:00,62.0,59.6,30.05,NNW,335,0.0,0.0,92,0.00,,,0.00,Wunderground v.1.15,2013-09-12 06:05:00,
2013-09-12 01:15:00,61.9,59.5,30.05,NNW,334,0.0,0.0,92,0.00,,,0.00,Wunderground v.1.15,2013-09-12 06:15:00,
2013-09-12 01:20:00,61.9,59.5,30.05,NNW,335,0.0,0.0,92,0.00,,,0.00,Wunderground v.1.15,2013-09-12 06:20:00,
2013-09-12 01:25:00,61.8,59.5,30.05,NNW,334,0.0,0.0,92,0.00,,,0.00,Wunderground v.1.15,2013-09-12 06:25:00,
2013-09-12 01:30:00,61.6,59.3,30.05,NNW,335,0.0,0.0,92,0.00,,,0.00,Wunderground v.1.15,2013-09-12 06:30:00,
2013-09-12 01:35:00,61.5,59.2,30.05,NNW,335,0.0,0.0,92,0.00,,,0.00,Wunderground v.1.15,2013-09-12 06:35:00,
2013-09-12 01:40:00,61.3,59.0,30.05,NNW,335,0.0,0.0,92,0.00,,,0.00,Wunderground v.1.15,2013-09-12 06:40:00,
2013-09-12 01:45:00,61.1,58.8,30.05,NNW,334,0.0,0.0,92,0.00,,,0.00,Wunderground v.1.15,2013-09-12 06:45:00,
2013-09-12 01:50:00,61.0,58.7,30.05,NNW,335,0.0,0.0,92,0.00,,,0.00,Wunderground v.1.15,2013-09-12 06:50:00,
2013-09-12 01:55:00,60.8,58.5,30.06,NNW,335,0.0,0.0,92,0.00,,,0.00,Wunderground v.1.15,2013-09-12 06:55:00,
2013-09-12 02:00:00,60.7,58.4,30.06,NNW,335,0.0,0.0,92,0.00,,,0.00,Wunderground v.1.15,2013-09-12 07:00:00,
2013-09-12 02:05:00,60.7,58.4,30.06,NNW,335,0.0,0.0,92,0.00,,,0.00,Wunderground v.1.15,2013-09-12 07:05:00,
2013-09-12 02:15:00,60.4,58.1,30.06,NNW,335,0.0,0.0,92,0.00,,,0.00,Wunderground v.1.15,2013-09-12 07:15:00,
2013-09-12 02:20:00,60.3,58.0,30.05,NNW,335,0.0,0.0,92,0.00,,,0.00,Wunderground v.1.15,2013-09-12 07:20:00,
2013-09-12 02:30:00,60.2,57.9,30.05,NNW,334,0.0,0.0,92,0.00,,,0.00,Wunderground v.1.15,2013-09-12 07:30:00,
2013-09-12 02:35:00,60.2,57.9,30.05,NNW,334,0.0,0.0,92,0.00,,,0.00,Wunderground v.1.15,2013-09-12 07:35:00,
2013-09-12 02:45:00,60.0,57.7,30.06,NNW,335,0.0,0.0,92,0.00,,,0.00,Wunderground v.1.15,2013-09-12 07:45:00,
2013-09-12 02:50:00,59.9,57.6,30.06,NNW,334,0.0,0.0,92,0.00,,,0.00,Wunderground v.1.15,2013-09-12 07:50:00,
2013-09-12 03:00:00,59.6,57.3,30.06,NNW,335,0.0,0.0,92,0.00,,,0.00,Wunderground v.1.15,2013-09-12 08:00:00,
2013-09-12 03:05:00,59.4,57.1,30.06,NNW,334,0.0,0.0,92,0.00,,,0.00,Wunderground v.1.15,2013-09-12 08:05:00,
2013-09-12 03:15:00,59.0,56.7,30.06,NNW,334,0.0,0.0,92,0.00,,,0.00,Wunderground v.1.15,2013-09-12 08:15:00,
2013-09-12 03:25:00,59.0,56.7,30.06,NNW,335,0.0,0.0,92,0.00,,,0.00,Wunderground v.1.15,2013-09-12 08:25:00,
2013-09-12 03:30:00,59.0,56.7,30.06,NNW,335,0.0,0.0,92,0.00,,,0.00,Wunderground v.1.15,2013-09-12 08:30:00,
2013-09-12 03:35:00,59.0,56.7,30.06,NNW,334,0.0,0.0,92,0.00,,,0.00,Wunderground v.1.15,2013-09-12 08:35:00,
2013-09-12 03:40:00,59.0,57.0,30.06,NNW,335,0.0,0.0,93,0.00,,,0.00,Wunderground v.1.15,2013-09-12 08:40:00,
2013-09-12 03:45:00,58.8,56.5,30.06,NNW,335,0.0,0.0,92,0.00,,,0.00,Wunderground v.1.15,2013-09-12 08:45:00,
2013-09-12 03:50:00,58.6,56.3,30.06,NNW,335,0.0,0.0,92,0.00,,,0.00,Wunderground v.1.15,2013-09-12 08:50:00,
2013-09-12 03:55:00,58.3,56.0,30.06,NNW,334,0.0,0.0,92,0.00,,,0.00,Wunderground v.1.15,2013-09-12 08:55:00,
2013-09-12 04:05:00,58.1,55.8,30.06,NNW,335,0.0,0.0,92,0.00,,,0.00,Wunderground v.1.15,2013-09-12 09:05:00,
2013-09-12 04:15:00,57.9,55.9,30.06,NNW,335,0.0,0.0,93,0.00,,,0.00,Wunderground v.1.15,2013-09-12 09:15:00,
2013-09-12 04:25:00,58.0,56.0,30.06,NNW,335,0.0,0.0,93,0.00,,,0.00,Wunderground v.1.15,2013-09-12 09:25:00,
2013-09-12 04:30:00,58.0,56.0,30.06,NNW,335,0.0,0.0,93,0.00,,,0.00,Wunderground v.1.15,2013-09-12 09:30:00,
2013-09-12 04:35:00,57.9,55.9,30.06,NNW,334,0.0,0.0,93,0.00,,,0.00,Wunderground v.1.15,2013-09-12 09:35:00,
2013-09-12 04:40:00,57.9,55.9,30.06,NNW,335,0.0,0.0,93,0.00,,,0.00,Wunderground v.1.15,2013-09-12 09:40:00,
2013-09-12 04:45:00,57.9,55.9,30.06,NNW,335,0.0,0.0,93,0.00,,,0.00,Wunderground v.1.15,2013-09-12 09:45:00,
2013-09-12 04:50:00,57.8,55.8,30.06,NNW,335,0.0,0.0,93,0.00,,,0.00,Wunderground v.1.15,2013-09-12 09:50:00,
2013-09-12 04:55:00,57.8,55.8,30.06,NNW,335,0.0,0.0,93,0.00,,,0.00,Wunderground v.1.15,2013-09-12 09:55:00,
2013-09-12 05:00:00,57.8,55.8,30.06,NNW,335,0.0,0.0,93,0.00,,,0.00,Wunderground v.1.15,2013-09-12 10:00:00,
2013-09-12 05:05:00,57.9,55.9,30.06,NNW,334,0.0,0.0,93,0.00,,,0.00,Wunderground v.1.15,2013-09-12 10:05:00,
2013-09-12 05:15:00,57.8,55.8,30.07,NNW,335,0.0,0.0,93,0.00,,,0.00,Wunderground v.1.15,2013-09-12 10:15:00,
2013-09-12 05:20:00,58.0,56.0,30.07,NNW,335,0.0,0.0,93,0.00,,,0.00,Wunderground v.1.15,2013-09-12 10:20:00,
2013-09-12 05:25:00,58.2,56.2,30.07,NNW,335,0.0,0.0,93,0.00,,,0.00,Wunderground v.1.15,2013-09-12 10:25:00,
2013-09-12 05:30:00,58.4,56.4,30.06,NNW,335,0.0,0.0,93,0.00,,,0.00,Wunderground v.1.15,2013-09-12 10:30:00,
2013-09-12 05:35:00,58.5,56.5,30.07,NNW,335,0.0,0.0,93,0.00,,,0.00,Wunderground v.1.15,2013-09-12 10:35:00,
2013-09-12 05:45:00,58.4,56.4,30.06,NNW,335,0.0,0.0,93,0.00,,,0.00,Wunderground v.1.15,2013-09-12 10:45:00,
2013-09-12 05:50:00,58.3,56.3,30.06,NNW,334,0.0,0.0,93,0.00,,,0.00,Wunderground v.1.15,2013-09-12 10:50:00,
2013-09-12 05:55:00,58.2,56.2,30.06,NNW,335,0.0,0.0,93,0.00,,,0.00,Wunderground v.1.15,2013-09-12 10:55:00,
2013-09-12 06:00:00,58.2,56.2,30.06,NNW,335,0.0,0.0,93,0.00,,,0.00,Wunderground v.1.15,2013-09-12 11:00:00,
2013-09-12 06:05:00,58.0,56.0,30.06,NNW,334,0.0,0.0,93,0.00,,,0.00,Wunderground v.1.15,2013-09-12 11:05:00,
2013-09-12 06:15:00,57.8,55.8,30.06,NNW,334,0.0,0.0,93,0.00,,,0.00,Wunderground v.1.15,2013-09-12 11:15:00,
2013-09-12 06:20:00,57.7,55.7,30.06,NNW,335,0.0,0.0,93,0.00,,,0.00,Wunderground v.1.15,2013-09-12 11:20:00,
2013-09-12 06:30:00,57.4,55.4,30.07,NNW,335,0.0,0.0,93,0.00,,,0.00,Wunderground v.1.15,2013-09-12 11:30:00,
2013-09-12 06:35:00,57.1,55.1,30.08,NNW,334,0.0,3.0,93,0.00,,,0.00,Wunderground v.1.15,2013-09-12 11:35:00,
2013-09-12 06:40:00,56.8,54.8,30.08,NNW,334,0.0,1.0,93,0.00,,,0.01,Wunderground v.1.15,2013-09-12 11:40:00,
2013-09-12 06:45:00,56.8,54.8,30.08,NNW,335,0.0,1.0,93,0.00,,,0.01,Wunderground v.1.15,2013-09-12 11:45:00,
2013-09-12 06:50:00,56.8,54.8,30.08,NNW,335,0.0,0.0,93,0.00,,,0.01,Wunderground v.1.15,2013-09-12 11:50:00,
2013-09-12 06:55:00,56.7,54.7,30.07,NNW,335,0.0,0.0,93,0.00,,,0.01,Wunderground v.1.15,2013-09-12 11:55:00,
2013-09-12 07:05:00,56.8,54.8,30.07,NNW,335,0.0,0.0,93,0.00,,,0.01,Wunderground v.1.15,2013-09-12 12:05:00,
2013-09-12 07:15:00,57.3,55.6,30.07,NNW,334,0.0,0.0,94,0.00,,,0.01,Wunderground v.1.15,2013-09-12 12:15:00,
2013-09-12 07:20:00,57.3,55.6,30.07,NNW,334,0.0,0.0,94,0.00,,,0.01,Wunderground v.1.15,2013-09-12 12:20:00,
2013-09-12 07:25:00,57.5,55.8,30.07,NNW,334,0.0,0.0,94,0.00,,,0.01,Wunderground v.1.15,2013-09-12 12:25:00,
2013-09-12 07:35:00,58.0,56.3,30.08,NNW,335,0.0,0.0,94,0.00,,,0.01,Wunderground v.1.15,2013-09-12 12:35:00,
2013-09-12 07:40:00,58.2,56.5,30.08,NNW,335,0.0,0.0,94,0.00,,,0.01,Wunderground v.1.15,2013-09-12 12:40:00,
2013-09-12 07:45:00,59.0,57.3,30.08,NNW,335,0.0,0.0,94,0.00,,,0.01,Wunderground v.1.15,2013-09-12 12:45:00,
2013-09-12 07:50:00,59.5,57.8,30.08,NNW,336,0.0,0.0,94,0.00,,,0.01,Wunderground v.1.15,2013-09-12 12:50:00,
2013-09-12 07:55:00,60.0,58.3,30.08,NNW,336,0.0,0.0,94,0.00,,,0.01,Wunderground v.1.15,2013-09-12 12:55:00,
2013-09-12 08:00:00,60.3,58.6,30.08,NNW,340,1.0,1.0,94,0.00,,,0.01,Wunderground v.1.15,2013-09-12 13:00:00,
2013-09-12 08:05:00,60.7,59.0,30.08,NNW,345,1.0,1.0,94,0.00,,,0.01,Wunderground v.1.15,2013-09-12 13:05:00,
2013-09-12 08:15:00,61.4,59.4,30.09,NNW,346,1.0,2.0,93,0.00,,,0.01,Wunderground v.1.15,2013-09-12 13:15:00,
2013-09-12 08:20:00,61.8,59.8,30.08,NNW,343,2.0,4.0,93,0.00,,,0.01,Wunderground v.1.15,2013-09-12 13:20:00,
2013-09-12 08:25:00,62.3,59.9,30.08,North,360,2.0,5.0,92,0.00,,,0.01,Wunderground v.1.15,2013-09-12 13:25:00,
2013-09-12 08:30:00,63.0,60.3,30.08,NNW,342,3.0,3.0,91,0.00,,,0.01,Wunderground v.1.15,2013-09-12 13:30:00,
2013-09-12 08:35:00,63.9,60.6,30.08,NNW,345,3.0,3.0,89,0.00,,,0.01,Wunderground v.1.15,2013-09-12 13:35:00,
2013-09-12 08:45:00,65.2,60.6,30.08,NNW,332,3.0,4.0,85,0.00,,,0.01,Wunderground v.1.15,2013-09-12 13:45:00,
2013-09-12 08:50:00,65.5,60.2,30.08,NNW,329,3.0,6.0,83,0.00,,,0.01,Wunderground v.1.15,2013-09-12 13:50:00,
2013-09-12 08:55:00,65.8,59.8,30.08,North,355,3.0,7.0,81,0.00,,,0.01,Wunderground v.1.15,2013-09-12 13:55:00,
2013-09-12 09:00:00,66.1,59.7,30.08,North,360,3.0,3.0,80,0.00,,,0.01,Wunderground v.1.15,2013-09-12 14:00:00,
2013-09-12 09:05:00,66.5,59.8,30.08,NNW,331,3.0,3.0,79,0.00,,,0.01,Wunderground v.1.15,2013-09-12 14:05:00,
2013-09-12 09:15:00,67.0,59.5,30.09,NNW,347,3.0,4.0,77,0.00,,,0.01,Wunderground v.1.15,2013-09-12 14:15:00,
2013-09-12 09:20:00,67.2,59.0,30.09,NNW,340,3.0,3.0,75,0.00,,,0.01,Wunderground v.1.15,2013-09-12 14:20:00,
2013-09-12 09:25:00,67.5,59.3,30.09,NNW,346,3.0,5.0,75,0.00,,,0.01,Wunderground v.1.15,2013-09-12 14:25:00,
2013-09-12 09:30:00,67.6,59.0,30.09,NNW,340,4.0,4.0,74,0.00,,,0.01,Wunderground v.1.15,2013-09-12 14:30:00,
2013-09-12 09:35:00,68.0,59.4,30.09,NNW,328,3.0,4.0,74,0.00,,,0.01,Wunderground v.1.15,2013-09-12 14:35:00,
2013-09-12 09:40:00,68.1,58.7,30.09,NNW,342,3.0,8.0,72,0.00,,,0.01,Wunderground v.1.15,2013-09-12 14:40:00,
2013-09-12 09:45:00,68.3,58.5,30.09,NNW,330,5.0,8.0,71,0.00,,,0.01,Wunderground v.1.15,2013-09-12 14:45:00,
2013-09-12 09:55:00,68.9,59.5,30.09,NNW,348,2.0,6.0,72,0.00,,,0.01,Wunderground v.1.15,2013-09-12 14:55:00,
2013-09-12 10:00:00,69.2,59.0,30.09,North,355,1.0,3.0,70,0.00,,,0.01,Wunderground v.1.15,2013-09-12 15:00:00,
2013-09-12 10:05:00,69.5,59.7,30.09,North,355,1.0,3.0,71,0.00,,,0.01,Wunderground v.1.15,2013-09-12 15:05:00,
2013-09-12 10:15:00,70.1,59.0,30.09,NNW,331,3.0,5.0,68,0.00,,,0.01,Wunderground v.1.15,2013-09-12 15:15:00,
2013-09-12 10:20:00,70.1,59.0,30.09,North,355,5.0,5.0,68,0.00,,,0.01,Wunderground v.1.15,2013-09-12 15:20:00,
2013-09-12 10:25:00,70.6,59.5,30.09,NNW,336,3.0,5.0,68,0.00,,,0.01,Wunderground v.1.15,2013-09-12 15:25:00,
2013-09-12 10:30:00,71.1,58.3,30.09,North,355,3.0,7.0,64,0.00,,,0.01,Wunderground v.1.15,2013-09-12 15:30:00,
2013-09-12 10:35:00,71.0,58.2,30.09,NW,311,5.0,9.0,64,0.00,,,0.01,Wunderground v.1.15,2013-09-12 15:35:00,
2013-09-12 10:40:00,71.4,58.1,30.09,NNW,346,5.0,5.0,63,0.00,,,0.01,Wunderground v.1.15,2013-09-12 15:40:00,
2013-09-12 10:50:00,72.4,59.1,30.09,NNW,331,3.0,3.0,63,0.00,,,0.01,Wunderground v.1.15,2013-09-12 15:50:00,
2013-09-12 11:00:00,73.3,57.6,30.09,NW,313,4.0,5.0,58,0.00,,,0.01,Wunderground v.1.15,2013-09-12 16:00:00,
2013-09-12 11:05:00,73.4,57.7,30.09,NNW,342,6.0,6.0,58,0.00,,,0.01,Wunderground v.1.15,2013-09-12 16:05:00,
2013-09-12 11:15:00,74.6,56.9,30.09,NW,322,4.0,5.0,54,0.00,,,0.01,Wunderground v.1.15,2013-09-12 16:15:00,
2013-09-12 11:30:00,75.6,58.3,30.09,NW,325,5.0,5.0,55,0.00,,,0.01,Wunderground v.1.15,2013-09-12 16:30:00,
2013-09-12 11:35:00,75.9,58.1,30.10,NW,323,5.0,7.0,54,0.00,,,0.01,Wunderground v.1.15,2013-09-12 16:35:00,
2013-09-12 11:45:00,75.7,56.3,30.10,WNW,302,6.0,6.0,51,0.00,,,0.01,Wunderground v.1.15,2013-09-12 16:45:00,
2013-09-12 11:50:00,75.2,54.7,30.09,NW,304,7.0,7.0,49,0.00,,,0.01,Wunderground v.1.15,2013-09-12 16:50:00,
2013-09-12 11:55:00,75.6,56.2,30.10,NNW,336,6.0,7.0,51,0.00,,,0.01,Wunderground v.1.15,2013-09-12 16:55:00,
2013-09-12 12:00:00,75.6,55.6,30.10,NNW,344,6.0,6.0,50,0.00,,,0.01,Wunderground v.1.15,2013-09-12 17:00:00,
2013-09-12 12:05:00,76.1,56.7,30.09,WNW,302,6.0,6.0,51,0.00,,,0.01,Wunderground v.1.15,2013-09-12 17:05:00,
2013-09-12 12:15:00,76.4,54.1,30.09,NW,310,7.0,9.0,46,0.00,,,0.01,Wunderground v.1.15,2013-09-12 17:15:00,
2013-09-12 12:20:00,75.9,54.2,30.10,NW,323,8.0,10.0,47,0.00,,,0.01,Wunderground v.1.15,2013-09-12 17:20:00,
2013-09-12 12:25:00,75.6,53.9,30.10,NNW,333,9.0,10.0,47,0.00,,,0.01,Wunderground v.1.15,2013-09-12 17:25:00,
2013-09-12 12:30:00,75.7,54.6,30.10,NNW,329,8.0,8.0,48,0.00,,,0.01,Wunderground v.1.15,2013-09-12 17:30:00,
2013-09-12 12:40:00,76.1,55.5,30.10,NW,313,7.0,7.0,49,0.00,,,0.01,Wunderground v.1.15,2013-09-12 17:40:00,
2013-09-12 12:45:00,76.0,54.9,30.10,North,5,7.0,7.0,48,0.00,,,0.01,Wunderground v.1.15,2013-09-12 17:45:00,
2013-09-12 12:50:00,76.4,55.3,30.11,NNW,327,7.0,11.0,48,0.00,,,0.01,Wunderground v.1.15,2013-09-12 17:50:00,
2013-09-12 12:55:00,76.2,55.1,30.11,NW,308,8.0,11.0,48,0.00,,,0.01,Wunderground v.1.15,2013-09-12 17:55:00,
2013-09-12 13:00:00,76.4,55.8,30.11,North,360,7.0,12.0,49,0.00,,,0.01,Wunderground v.1.15,2013-09-12 18:00:00,
2013-09-12 13:05:00,76.6,54.9,30.10,NNW,348,7.0,15.0,47,0.00,,,0.01,Wunderground v.1.15,2013-09-12 18:05:00,
2013-09-12 13:15:00,76.5,54.2,30.10,NW,321,8.0,8.0,46,0.00,,,0.01,Wunderground v.1.15,2013-09-12 18:15:00,
2013-09-12 13:20:00,76.0,54.3,30.09,North,355,7.0,7.0,47,0.00,,,0.01,Wunderground v.1.15,2013-09-12 18:20:00,
2013-09-12 13:30:00,77.1,54.7,30.10,North,360,6.0,8.0,46,0.00,,,0.01,Wunderground v.1.15,2013-09-12 18:30:00,
2013-09-12 13:35:00,76.7,55.0,30.09,North,5,6.0,8.0,47,0.00,,,0.01,Wunderground v.1.15,2013-09-12 18:35:00,
2013-09-12 13:40:00,77.2,56.0,30.09,NW,317,6.0,6.0,48,0.00,,,0.01,Wunderground v.1.15,2013-09-12 18:40:00,
2013-09-12 13:50:00,76.4,53.5,30.09,NW,325,8.0,8.0,45,0.00,,,0.01,Wunderground v.1.15,2013-09-12 18:50:00,
2013-09-12 13:55:00,75.9,53.6,30.09,NNW,332,8.0,8.0,46,0.00,,,0.01,Wunderground v.1.15,2013-09-12 18:55:00,
2013-09-12 14:00:00,76.6,53.7,30.09,NW,309,7.0,7.0,45,0.00,,,0.01,Wunderground v.1.15,2013-09-12 19:00:00,
2013-09-12 14:05:00,76.9,53.3,30.09,NNW,336,7.0,7.0,44,0.00,,,0.01,Wunderground v.1.15,2013-09-12 19:05:00,
2013-09-12 14:15:00,77.1,54.1,30.09,NNW,343,5.0,6.0,45,0.00,,,0.01,Wunderground v.1.15,2013-09-12 19:15:00,
2013-09-12 14:20:00,77.6,53.3,30.09,North,355,5.0,5.0,43,0.00,,,0.01,Wunderground v.1.15,2013-09-12 19:20:00,
2013-09-12 14:25:00,77.4,54.4,30.09,NNW,332,4.0,5.0,45,0.00,,,0.01,Wunderground v.1.15,2013-09-12 19:25:00,
2013-09-12 14:30:00,77.2,52.3,30.09,NNW,348,6.0,11.0,42,0.00,,,0.01,Wunderground v.1.15,2013-09-12 19:30:00,
2013-09-12 14:35:00,77.4,53.8,30.09,NNW,331,5.0,11.0,44,0.00,,,0.01,Wunderground v.1.15,2013-09-12 19:35:00,
2013-09-12 14:40:00,77.1,52.9,30.09,North,360,5.0,8.0,43,0.00,,,0.01,Wunderground v.1.15,2013-09-12 19:40:00,
2013-09-12 14:45:00,76.6,52.4,30.09,NW,322,7.0,11.0,43,0.00,,,0.01,Wunderground v.1.15,2013-09-12 19:45:00,
2013-09-12 14:55:00,77.3,53.1,30.09,NNW,330,4.0,6.0,43,0.00,,,0.01,Wunderground v.1.15,2013-09-12 19:55:00,
2013-09-12 15:00:00,77.4,51.9,30.09,NW,325,5.0,5.0,41,0.00,,,0.01,Wunderground v.1.15,2013-09-12 20:00:00,
2013-09-12 15:05:00,77.1,52.9,30.09,North,351,6.0,6.0,43,0.00,,,0.01,Wunderground v.1.15,2013-09-12 20:05:00,
2013-09-12 15:15:00,76.5,52.3,30.09,NNW,334,6.0,7.0,43,0.00,,,0.01,Wunderground v.1.15,2013-09-12 20:15:00,
2013-09-12 15:25:00,76.8,53.2,30.08,NW,324,5.0,9.0,44,0.00,,,0.01,Wunderground v.1.15,2013-09-12 20:25:00,
2013-09-12 15:30:00,76.3,52.2,30.08,NNW,346,6.0,6.0,43,0.00,,,0.01,Wunderground v.1.15,2013-09-12 20:30:00,
2013-09-12 15:35:00,76.3,52.8,30.09,North,355,5.0,7.0,44,0.00,,,0.01,Wunderground v.1.15,2013-09-12 20:35:00,
2013-09-12 15:40:00,76.4,52.2,30.09,NNW,330,4.0,7.0,43,0.00,,,0.01,Wunderground v.1.15,2013-09-12 20:40:00,
2013-09-12 15:50:00,76.0,51.9,30.08,North,360,7.0,7.0,43,0.00,,,0.01,Wunderground v.1.15,2013-09-12 20:50:00,
2013-09-12 15:55:00,76.0,51.9,30.09,NW,324,6.0,10.0,43,0.00,,,0.01,Wunderground v.1.15,2013-09-12 20:55:00,
2013-09-12 16:05:00,76.0,51.9,30.08,NNW,336,6.0,7.0,43,0.00,,,0.01,Wunderground v.1.15,2013-09-12 21:05:00,
2013-09-12 16:15:00,75.9,51.8,30.09,NNW,339,6.0,9.0,43,0.00,,,0.01,Wunderground v.1.15,2013-09-12 21:15:00,
2013-09-12 16:20:00,76.0,53.1,30.08,NW,306,8.0,8.0,45,0.00,,,0.01,Wunderground v.1.15,2013-09-12 21:20:00,
2013-09-12 16:25:00,76.2,52.7,30.09,NW,316,7.0,8.0,44,0.00,,,0.01,Wunderground v.1.15,2013-09-12 21:25:00,
2013-09-12 16:30:00,75.2,51.2,30.09,North,355,7.0,7.0,43,0.00,,,0.01,Wunderground v.1.15,2013-09-12 21:30:00,
2013-09-12 16:40:00,75.4,52.6,30.09,NNW,328,5.0,5.0,45,0.00,,,0.01,Wunderground v.1.15,2013-09-12 21:40:00,
2013-09-12 16:45:00,75.6,52.1,30.09,NNW,336,5.0,6.0,44,0.00,,,0.01,Wunderground v.1.15,2013-09-12 21:45:00,
2013-09-12 16:50:00,75.4,52.0,30.09,NNW,346,4.0,7.0,44,0.00,,,0.01,Wunderground v.1.15,2013-09-12 21:50:00,
2013-09-12 16:55:00,75.6,51.5,30.09,NNW,346,4.0,7.0,43,0.00,,,0.01,Wunderground v.1.15,2013-09-12 21:55:00,
2013-09-12 17:05:00,75.0,51.6,30.09,NW,321,4.0,4.0,44,0.00,,,0.01,Wunderground v.1.15,2013-09-12 22:05:00,
2013-09-12 17:15:00,74.5,51.2,30.09,NW,323,5.0,7.0,44,0.00,,,0.01,Wunderground v.1.15,2013-09-12 22:15:00,
2013-09-12 17:20:00,74.3,51.0,30.09,NW,313,6.0,6.0,44,0.00,,,0.01,Wunderground v.1.15,2013-09-12 22:20:00,
2013-09-12 17:30:00,74.3,51.0,30.10,NNW,348,4.0,4.0,44,0.00,,,0.01,Wunderground v.1.15,2013-09-12 22:30:00,
2013-09-12 17:40:00,73.8,51.1,30.10,NNW,340,4.0,4.0,45,0.00,,,0.01,Wunderground v.1.15,2013-09-12 22:40:00,
2013-09-12 17:45:00,73.7,50.4,30.10,NW,323,3.0,6.0,44,0.00,,,0.01,Wunderground v.1.15,2013-09-12 22:45:00,
2013-09-12 17:50:00,73.6,50.3,30.10,NNW,338,4.0,7.0,44,0.00,,,0.01,Wunderground v.1.15,2013-09-12 22:50:00,
2013-09-12 17:55:00,73.3,50.1,30.10,NNW,338,5.0,7.0,44,0.00,,,0.01,Wunderground v.1.15,2013-09-12 22:55:00,
2013-09-12 18:05:00,72.5,50.5,30.10,NW,309,5.0,5.0,46,0.00,,,0.01,Wunderground v.1.15,2013-09-12 23:05:00,
2013-09-12 18:15:00,72.1,50.2,30.11,NW,323,4.0,5.0,46,0.00,,,0.01,Wunderground v.1.15,2013-09-12 23:15:00,
2013-09-12 18:25:00,71.5,50.8,30.11,NNW,327,4.0,5.0,48,0.00,,,0.01,Wunderground v.1.15,2013-09-12 23:25:00,
2013-09-12 18:30:00,71.3,50.6,30.11,NW,325,3.0,3.0,48,0.00,,,0.01,Wunderground v.1.15,2013-09-12 23:30:00,
2013-09-12 18:35:00,71.1,50.4,30.11,NNW,340,3.0,3.0,48,0.00,,,0.01,Wunderground v.1.15,2013-09-12 23:35:00,
2013-09-12 18:40:00,70.8,50.7,30.11,NNW,327,3.0,5.0,49,0.00,,,0.01,Wunderground v.1.15,2013-09-12 23:40:00,
2013-09-12 18:45:00,70.4,50.3,30.11,NNW,332,5.0,5.0,49,0.00,,,0.01,Wunderground v.1.15,2013-09-12 23:45:00,
2013-09-12 18:55:00,69.8,50.9,30.12,NNW,334,3.0,4.0,51,0.00,,,0.01,Wunderground v.1.15,2013-09-12 23:55:00,
2013-09-12 19:00:00,69.5,50.6,30.12,WNW,300,4.0,4.0,51,0.00,,,0.01,Wunderground v.1.15,2013-09-13 00:00:00,
2013-09-12 19:05:00,69.3,50.4,30.12,North,355,5.0,5.0,51,0.00,,,0.01,Wunderground v.1.15,2013-09-13 00:05:00,
2013-09-12 19:15:00,68.6,50.3,30.12,NW,317,4.0,4.0,52,0.00,,,0.01,Wunderground v.1.15,2013-09-13 00:15:00,
2013-09-12 19:25:00,67.9,50.6,30.13,NNW,333,1.0,3.0,54,0.00,,,0.01,Wunderground v.1.15,2013-09-13 00:25:00,
2013-09-12 19:30:00,67.4,50.7,30.13,NNW,332,1.0,1.0,55,0.00,,,0.01,Wunderground v.1.15,2013-09-13 00:30:00,
2013-09-12 19:35:00,67.1,50.9,30.13,NNW,332,1.0,1.0,56,0.00,,,0.01,Wunderground v.1.15,2013-09-13 00:35:00,
2013-09-12 19:40:00,66.8,50.6,30.13,NNW,334,1.0,1.0,56,0.00,,,0.01,Wunderground v.1.15,2013-09-13 00:40:00,
2013-09-12 19:50:00,66.3,50.6,30.14,NNW,340,0.0,0.0,57,0.00,,,0.01,Wunderground v.1.15,2013-09-13 00:50:00,
2013-09-12 20:00:00,65.6,50.4,30.14,NNW,341,0.0,0.0,58,0.00,,,0.01,Wunderground v.1.15,2013-09-13 01:00:00,
2013-09-12 20:05:00,65.3,50.6,30.14,NNW,341,0.0,0.0,59,0.00,,,0.01,Wunderground v.1.15,2013-09-13 01:05:00,
2013-09-12 20:15:00,64.6,50.4,30.15,NNW,341,0.0,0.0,60,0.00,,,0.01,Wunderground v.1.15,2013-09-13 01:15:00,
2013-09-12 20:20:00,64.3,51.0,30.15,NNW,341,0.0,0.0,62,0.00,,,0.01,Wunderground v.1.15,2013-09-13 01:20:00,
2013-09-12 20:25:00,63.9,50.6,30.15,NNW,341,0.0,0.0,62,0.00,,,0.01,Wunderground v.1.15,2013-09-13 01:25:00,
2013-09-12 20:30:00,63.5,50.7,30.15,NNW,341,0.0,0.0,63,0.00,,,0.01,Wunderground v.1.15,2013-09-13 01:30:00,
2013-09-12 20:40:00,62.7,50.3,30.15,NNW,341,0.0,0.0,64,0.00,,,0.01,Wunderground v.1.15,2013-09-13 01:40:00,
2013-09-12 20:50:00,61.9,50.4,30.15,NNW,341,0.0,0.0,66,0.00,,,0.01,Wunderground v.1.15,2013-09-13 01:50:00,
2013-09-12 20:55:00,61.4,50.3,30.15,NNW,341,0.0,0.0,67,0.00,,,0.01,Wunderground v.1.15,2013-09-13 01:55:00,
2013-09-12 21:00:00,60.8,50.2,30.15,NNW,341,0.0,0.0,68,0.00,,,0.01,Wunderground v.1.15,2013-09-13 02:00:00,
2013-09-12 21:05:00,60.2,50.4,30.15,NNW,341,0.0,0.0,70,0.00,,,0.01,Wunderground v.1.15,2013-09-13 02:05:00,
2013-09-12 21:15:00,59.0,50.0,30.16,NNW,341,0.0,0.0,72,0.00,,,0.01,Wunderground v.1.15,2013-09-13 02:15:00,
2013-09-12 21:20:00,59.0,50.4,30.16,NNW,341,0.0,0.0,73,0.00,,,0.01,Wunderground v.1.15,2013-09-13 02:20:00,
2013-09-12 21:30:00,58.3,50.0,30.15,NNW,341,0.0,0.0,74,0.00,,,0.01,Wunderground v.1.15,2013-09-13 02:30:00,
2013-09-12 21:40:00,57.3,49.8,30.16,NNW,341,0.0,0.0,76,0.00,,,0.01,Wunderground v.1.15,2013-09-13 02:40:00,
2013-09-12 21:45:00,57.0,49.9,30.16,NNW,341,0.0,0.0,77,0.00,,,0.01,Wunderground v.1.15,2013-09-13 02:45:00,
2013-09-12 21:50:00,56.7,49.9,30.16,NNW,341,0.0,0.0,78,0.00,,,0.01,Wunderground v.1.15,2013-09-13 02:50:00,
2013-09-12 21:55:00,56.5,49.7,30.16,NNW,341,0.0,0.0,78,0.00,,,0.01,Wunderground v.1.15,2013-09-13 02:55:00,
2013-09-12 22:05:00,56.1,49.7,30.16,NNW,341,0.0,0.0,79,0.00,,,0.01,Wunderground v.1.15,2013-09-13 03:05:00,
2013-09-12 22:15:00,55.8,49.7,30.16,NNW,341,0.0,0.0,80,0.00,,,0.01,Wunderground v.1.15,2013-09-13 03:15:00,
2013-09-12 22:20:00,55.6,49.5,30.17,NNW,341,0.0,0.0,80,0.00,,,0.01,Wunderground v.1.15,2013-09-13 03:20:00,
2013-09-12 22:25:00,55.4,49.3,30.17,NNW,341,0.0,0.0,80,0.00,,,0.01,Wunderground v.1.15,2013-09-13 03:25:00,
2013-09-12 22:30:00,55.2,49.5,30.17,NNW,341,0.0,0.0,81,0.00,,,0.01,Wunderground v.1.15,2013-09-13 03:30:00,
2013-09-12 22:35:00,55.0,49.3,30.17,NNW,341,0.0,0.0,81,0.00,,,0.01,Wunderground v.1.15,2013-09-13 03:35:00,
2013-09-12 22:45:00,54.8,49.1,30.17,NNW,341,0.0,0.0,81,0.00,,,0.01,Wunderground v.1.15,2013-09-13 03:45:00,
2013-09-12 22:50:00,54.7,49.3,30.17,NNW,341,0.0,0.0,82,0.00,,,0.01,Wunderground v.1.15,2013-09-13 03:50:00,
2013-09-12 23:00:00,54.3,48.9,30.17,NNW,341,0.0,0.0,82,0.00,,,0.01,Wunderground v.1.15,2013-09-13 04:00:00,
2013-09-12 23:05:00,54.0,49.0,30.17,NNW,341,0.0,0.0,83,0.00,,,0.01,Wunderground v.1.15,2013-09-13 04:05:00,
2013-09-12 23:10:00,53.8,48.8,30.17,NNW,341,0.0,0.0,83,0.00,,,0.01,Wunderground v.1.15,2013-09-13 04:10:00,
2013-09-12 23:15:00,53.6,48.6,30.17,NNW,341,0.0,0.0,83,0.00,,,0.01,Wunderground v.1.15,2013-09-13 04:15:00,
2013-09-12 23:20:00,53.5,48.8,30.18,NNW,341,0.0,0.0,84,0.00,,,0.01,Wunderground v.1.15,2013-09-13 04:20:00,
2013-09-12 23:25:00,53.4,48.7,30.18,NNW,341,0.0,0.0,84,0.00,,,0.01,Wunderground v.1.15,2013-09-13 04:25:00,
2013-09-12 23:30:00,53.3,48.6,30.18,NNW,341,0.0,0.0,84,0.00,,,0.01,Wunderground v.1.15,2013-09-13 04:30:00,
2013-09-12 23:35:00,53.3,48.9,30.18,NNW,341,0.0,0.0,85,0.00,,,0.01,Wunderground v.1.15,2013-09-13 04:35:00,
2013-09-12 23:45:00,53.2,48.8,30.18,NNW,341,0.0,0.0,85,0.00,,,0.01,Wunderground v.1.15,2013-09-13 04:45:00,
2013-09-12 23:50:00,53.3,48.9,30.18,NNW,341,0.0,0.0,85,0.00,,,0.01,Wunderground v.1.15,2013-09-13 04:50:00,
2013-09-12 23:55:00,53.3,48.9,30.18,NNW,341,0.0,0.0,85,0.00,,,0.01,Wunderground v.1.15,2013-09-13 04:55:00,